CZ-3C DEB, 40818

Orbit data source: Space-Track

CZ-3C DEB, 40818 is space debris in HEO originally from a launch on Sun, 31 Oct 2010 UTC launched from the Xichang Space Center, China (XSC). Debris objects in space refer to the collection of defunct objects orbiting the Earth. Examples of debris include non-operational satellites, rocket bodies, and fragments generated from explosions, collisions, or faulty payload assembly.

Loading next visibility...
Identifier
40818, 2010-057AK
Orbit
HEO
Country
Flag of CNCN / PRC
Related business
Manufacturer
CALT
Mission
Spacecraft
Bus & Motor
Unknown
Mass
Unknown
Launch date (UTC)
2010-10-31 (15 years ago)
Launch vehicle
Unknown
Launch site
Xichang Space Center, China (XSC)
Object type
Payload
Rocket body
Debris
Shape & HBR
Unknown shape, 0.3 m
Radar Cross Section
Small (<0.1 m²)

Expand to show TLE details & history
Last TLE update: 15 hours ago

TLE from 15 hours ago
0 CZ-3C DEB
1 40818U 10057AK  25298.70681322 -.00000143  00000-0  89262-4 0  9999
2 40818  20.0497 177.8934 7096014  14.6802 358.4013  2.25733134 87685
Epoch: 2025-10-25T16:57Z
TLE epoch observation values (Epoch: 2025-10-25T16:57:48.662Z)
Latitude
-0.00029°
Longitude
-110.84711°
Altitude
831.927 km
Speed
9.712 km/s
True Right ascension
11h 51m 45s
True Declination
0° 00' 01"
Sunlit
Object was in daylight at epoch
Visualization orbit readout
Latitude
Unknown
Longitude
Unknown
Altitude
Unknown
Speed
Unknown
Apparent Right ascension
Unknown
Apparent Declination
Unknown
Sunlit
N/A
Visualization observer readout
Local Sidereal Time
02:51:52
Azimuth
Unknown
Elevation
Unknown
Doppler factor
Unknown
Orbital elements
Apogee altitude
35,595.33 km
Perigee altitude
751.616 km
Semi-major axis
24,551.61 km
Eccentricity
0.7096
Inclination
20.0497°
RAAN
177.8934°
Arg. of periapsis
14.6802°
True anomaly
346.74153°
Mean anomaly
358.4013°
Eccentric anomaly
354.51527°
Mean motion
0.56419 °/min
Orbital period
638.09 mins
BSTAR
0.000089262
Loading maneuver chart data...
Computing Atmospheric mass density...
Loading historical data...
Loading historical data...
Loading historical data...
Loading historical data...
Loading historical data...
Loading historical data...
Loading historical data...

Documentation

Showing up to 5 results
|